sat.trackr.live / text

‹ back to catalog

STARLINK-31293

NORAD 58952 · 2024-027X

PAYLOAD ACTIVE UNKNOWN

§ Identity

Operator
Country
US
Launch date
2024-02-10
Launch site
AFWTR
Launch vehicle
Mass (kg)
RCS (m²)

Purposes: comms

External: N2YO · Heavens-Above · Gunter

§ Orbital elements

Epoch: 2026-09-20T22:44:44.526912Z

Period
94.01 min
Inclination
53.1591°
Eccentricity
0.0001159
Mean motion
15.31719284 rev/d
Perigee alt
469.9 km
Apogee alt
471.5 km
Semi-major
6,848.8 km
B*
1.0491e-4
RAAN
121.2185°
Arg perigee
76.8442°
Mean anomaly
283.2689°
Rev number
14,724

§ Raw data

STARLINK-312931 58952U 24027X   26263.94773758  .00002894  00000+0  10491-3 0  99932 58952  53.1591 121.2185 0001159  76.8442 283.2689 15.31719284147249

JSON: /api/v1/satellites/58952 · /tle

For live sub-satellite position, see the globe view (requires WebGL).

§ Visibility from observer

Set your observer location to see the next 7 days of passes ≥ 10°. The values pass through the URL so the page stays shareable.

No JS? Fill the form by hand. The geolocation button needs JavaScript.